Location: *
(42.8667°N, 22.8333°E)
Time: 18:05:11
(UTC+00:00)

Daily predictions for brighter satellites

Satellite Brightness Start Highest point End
(mag) Time Altitude Azimuth Time Altitude Azimuth Time Altitude Azimuth
Cosmos 1864 Rocket 4.5 16:27:38 10° S 16:33:45 70° E 16:39:52 10° NNE
Cosmos 2369 Rocket 2.5 16:29:51 10° S 16:35:15 49° ESE 16:40:43 10° NE
Meteor 2-6 Rocket 4.2 16:29:43 10° N 16:35:17 89° ENE 16:40:41 10° S
STARLINK-57 4.3 16:31:26 10° WSW 16:35:21 48° NNW 16:39:16 10° NE
Cosmos 1802 Rocket 4.3 16:30:13 10° SSW 16:36:29 78° W 16:42:55 10° N
Aureole 2 Rocket 2.2 16:34:18 10° S 16:36:44 37° ESE 16:39:15 10° NE
Meteor 1-10 Rocket 4.2 16:31:11 10° N 16:36:48 79° E 16:42:21 10° SSE
STARLINK-49 4.3 16:32:57 10° WSW 16:36:52 49° NNW 16:40:47 10° NE
STARLINK-1007 3.8 16:34:13 10° WSW 16:37:20 47° NNW 16:40:28 10° NE
Cosmos 1782 4.3 16:33:54 10° NNW 16:37:43 43° W 16:41:29 10° SSW
STARLINK-27 4.3 16:34:38 10° WSW 16:38:32 48° NNW 16:42:27 10° NE
STARLINK-1060 3.9 16:34:52 10° SSW 16:38:52 50° SE 16:42:53 10° ENE
STARLINK-74 4.4 16:36:18 10° WSW 16:40:12 47° NNW 16:44:06 10° NE
YAOGAN 1 2.8 16:36:04 10° SE 16:40:13 47° ENE 16:44:24 10° N
Tsikada Rocket 4.1 16:34:27 10° N 16:40:49 66° E 16:47:11 10° SSE
NOSS 2-3 (D) 4.2 16:37:28 10° S 16:41:23 37° ESE 16:45:46 10° NE
STARLINK-39 4.4 16:37:58 10° WSW 16:41:51 46° NNW 16:45:45 10° NE
Cosmos 1812 2.9 16:38:55 10° N 16:42:42 49° E 16:46:27 10° SSE
USA 229 DEB 3.7 16:36:31 10° SW 16:43:02 86° NW 16:49:56 10° NE
USA 229 3.7 16:36:37 10° SW 16:43:09 87° NW 16:50:02 10° NE
STARLINK-31 4.5 16:39:41 10° WSW 16:43:33 44° NNW 16:47:25 10° NE
SL-4 R/B 3.8 16:39:13 10° WNW 16:43:39 39° SW 16:47:53 10° SSE
STARLINK-1030 3.8 16:39:49 10° SW 16:43:51 55° SE 16:47:55 10° ENE
Cosmos 1633 Rocket 3.1 16:40:30 10° S 16:44:45 60° E 16:49:02 10° NNE
CZ-2D R/B 3.6 16:44:37 10° SE 16:48:20 44° ENE 16:52:03 10° N
STARLINK-1020 3.7 16:44:43 10° SW 16:48:47 61° SE 16:52:53 10° ENE
Cosmos 1862 3.6 16:45:24 10° SSW 16:49:22 74° W 16:53:21 10° N
STARLINK-1047 3.7 16:45:24 10° SW 16:49:30 64° SE 16:53:39 10° ENE
NOSS 3-1 (A) 3.3 16:44:55 10° SSW 16:50:17 69° ESE 16:56:28 10° NE
Cosmos 2016 Rocket 4.3 16:44:16 10° SSW 16:50:20 72° W 16:56:29 10° N
SL-27 R/B 2.2 16:47:05 10° NNW 16:50:25 66° ENE 16:53:41 10° SSE
SKYMED 2 3.8 16:46:08 10° N 16:50:30 77° WNW 16:54:49 10° SSW
STARLINK-1010 4.1 16:47:40 10° W 16:50:44 38° NNW 16:53:47 10° NE
Cosmos 1666 Rocket 3.6 16:46:54 10° S 16:51:22 87° E 16:55:52 10° N
Cosmos 1933 Rocket 4.4 16:48:22 10° SSE 16:52:07 28° E 16:55:52 10° NNE
STARLINK-1052 3.6 16:49:41 10° SW 16:53:47 67° SE 16:57:54 10° ENE
Cosmos 44 3.4 16:52:59 10° NNW 16:57:14 46° NE 17:01:37 10° SE
STARLINK-29 3.9 16:55:17 10° NW 16:58:27 35° NNE 17:00:51 15° E
Cosmos 2263 4.3 16:54:36 10° S 17:00:14 57° ESE 17:05:53 10° NNE
Ariane Rocket 3.7 16:56:25 10° SE 17:00:52 32° ENE 17:05:21 10° N
ARGOS 4.4 16:58:15 10° ESE 17:02:13 21° ENE 17:06:12 10° NNE
Cosmos 1346 Rocket 3.3 16:58:48 10° SSE 17:02:29 37° E 17:06:10 10° NNE
CSL-04 Rocket 3.7 16:57:49 10° SSE 17:03:20 75° ENE 17:08:49 10° N
STARLINK-1033 3.6 16:59:35 10° SW 17:03:42 79° SE 17:07:27 13° NE
STARLINK-1029 4.1 17:00:55 10° W 17:03:55 38° NNW 17:06:52 10° NE
STARLINK-1035 3.7 16:59:44 10° SW 17:03:59 88° SE 17:07:55 12° NE
STARLINK-1008 4.5 17:01:44 10° W 17:04:43 31° NNW 17:07:44 10° NE
STARLINK-1016 4.5 17:01:45 10° W 17:04:43 31° NNW 17:07:42 10° NE
Cosmos 2233 Rocket 3.9 16:59:32 10° S 17:05:39 78° E 17:11:51 10° N
USA 116 3.9 17:03:37 10° NNE 17:07:39 87° ESE 17:12:13 10° SSW
FALCON 9 DEB 3.5 17:06:11 10° NW 17:09:32 47° NNE 17:11:39 20° E
STARLINK-52 3.8 17:07:24 10° NW 17:10:36 37° NNE 17:12:23 21° E
STARLINK-1024 3.6 17:09:31 10° SW 17:13:39 87° NW 17:17:00 15° NE
H-2A R/B 2.9 17:09:14 10° SE 17:13:50 30° ENE 17:18:31 10° N
STARLINK-1027 3.8 17:10:23 10° WSW 17:14:38 74° NNW 17:18:12 14° NE
NOSS 2-3 (C) 3.6 17:11:09 10° SSW 17:15:25 82° ESE 17:20:24 10° NE
STARLINK-60 3.0 17:13:26 10° NW 17:16:44 81° SW 17:19:06 18° SE
Lacrosse 5 3.4 17:15:55 10° SSE 17:18:59 16° ESE 17:19:13 16° ESE
Meteor 1-20 Rocket 4.4 17:14:06 10° SSE 17:19:13 43° E 17:24:26 10° NNE
DMSP B5D1-3 4.5 17:14:18 10° NNE 17:19:28 80° ESE 17:24:37 10° S
Cosmos 724 4.2 17:14:08 10° NNW 17:19:55 69° NE 17:25:44 10° SE
CSL-04 Debris 4.4 17:14:45 10° S 17:20:11 78° WSW 17:25:42 10° NNW
STARLINK-1032 3.7 17:19:30 10° WSW 17:23:38 74° NW 17:26:35 18° NE
Meteor 1-27 Rocket 4.2 17:22:40 10° NNW 17:28:09 63° W 17:33:42 10° S
STARLINK-1011 3.8 17:24:29 10° WSW 17:28:36 68° NNW 17:31:22 20° NE
Lacrosse 4 Rocket 4.3 17:28:03 10° WNW 17:30:00 13° NW 17:31:58 10° NNW
STARLINK-1050 4.5 17:26:49 10° SSW 17:30:28 31° SE 17:31:19 28° ESE
Lacrosse 5 rocket 3.9 17:28:58 10° NNW 17:31:16 14° N 17:33:35 10° NNE
Cosmos 1470 Rocket 3.7 17:27:18 10° SSW 17:31:39 77° W 17:36:03 10° N
Okean 1 4.1 17:29:08 10° NNE 17:32:37 30° ENE 17:32:37 30° ENE
Cosmos 1943 Rocket 3.3 17:28:01 10° SW 17:33:22 45° WNW 17:38:41 10° NNE
STARLINK-1036 3.9 17:29:30 10° WSW 17:33:36 63° NNW 17:36:09 22° NE
Gbstr 26 Del rocket 3.3 17:30:15 10° SSW 17:34:06 46° SE 17:35:49 31° E
Cosmos 2242 Rocket 3.5 17:30:43 10° N 17:35:16 76° E 17:39:50 10° SSE
STARLINK-1055 4.3 17:31:40 10° SSW 17:35:24 34° SE 17:36:05 32° ESE
Cosmos 2227 Rocket 4.2 17:37:15 10° NNE 17:38:17 10° NE 17:38:18 10° NE
STARLINK-1044 4.0 17:34:29 10° WSW 17:38:34 59° NNW 17:40:55 24° NE
Cosmos 1862 Rocket 4.3 17:35:41 10° NNW 17:39:55 54° W 17:44:09 10° S
Cosmos 1939 Rocket 4.2 17:36:03 10° S 17:39:58 42° W 17:43:56 10° NNW
STARLINK-1022 4.2 17:36:33 10° SSW 17:40:22 37° SE 17:40:53 36° ESE
CZ-2C R/B 3.6 17:37:57 14° SE 17:42:42 46° ENE 17:48:08 10° N
CZ-4 R/B 3.8 17:39:31 10° SSW 17:43:04 26° W 17:46:35 10° NW
STARLINK-1031 4.3 17:41:16 10° WSW 17:45:12 47° NNW 17:47:13 25° NNE
STARLINK-1042 4.0 17:41:26 10° SSW 17:45:19 41° SE 17:45:39 40° ESE
USA 267 4.2 17:45:45 24° ESE 17:46:07 25° SE 17:51:16 10° S
Cosmos 1340 3.8 17:43:29 10° SSW 17:47:05 45° WNW 17:50:44 10° N
Cosmos 1891 Rocket 4.4 17:41:43 10° S 17:47:48 66° E 17:54:01 10° NNE
STARLINK-1037 4.3 17:44:29 10° WSW 17:48:31 51° NNW 17:50:27 27° NNE
STARLINK-1056 3.9 17:46:19 10° SSW 17:50:16 45° SE 17:50:26 44° SE
GPS 2-04 Rocket1 4.1 17:47:20 10° SW 17:50:51 26° S 17:51:18 25° SSE
STARLINK-1059 4.4 17:49:34 10° WSW 17:53:34 47° NNW 17:55:17 29° NNE
STARLINK-1054 3.8 17:51:13 10° SSW 17:55:12 49° SE 17:55:12 49° SE
Meteor 1-19 Rocket 4.3 17:50:08 10° N 17:55:49 51° ENE 17:58:11 32° SE
SPOT 3 Rocket 3.9 17:55:45 40° E 17:56:17 41° ENE 18:01:09 10° N
Cosmos 405 3.4 17:52:49 10° N 17:55:35 48° NNE 17:55:35 48° NNE
Cosmos 1703 Rocket 3.4 17:52:21 10° N 17:56:50 80° E 18:00:26 16° SSE
Okean 1-7 2.9 17:53:32 10° N 17:57:51 69° E 17:59:21 39° SSE
Cosmos 468 Rocket 3.9 17:53:41 10° S 17:58:52 61° ESE 18:03:59 11° NNE
Meteor 2-4 Rocket 4.3 17:54:39 10° N 18:00:03 37° ENE 18:00:03 37° ENE
STARLINK-1062 3.8 17:56:09 10° SW 17:59:59 53° SSE 17:59:59 53° SSE
Meteor 1-25 Rocket 4.2 17:55:14 10° SSW 18:00:57 83° W 18:06:38 10° N
ADEOS Rocket 4.1 17:53:32 10° N 18:01:11 63° WNW 18:08:42 10° SSW
Cosmos 44 Rocket 3.9 17:57:37 10° NNW 18:01:44 36° NE 18:01:44 36° NE
COSMOS 2487 2.6 17:58:48 10° NNW 18:01:42 60° N 18:01:42 60° N
Cosmos 1869 Rocket 3.7 17:59:35 10° S 18:06:24 25° NNE 18:08:17 10° NNE
STARLINK-1053 3.8 18:01:05 10° SW 18:04:46 56° SSE 18:04:46 56° SSE
Cosmos 1656 Rocket 4.0 18:00:49 10° SW 18:06:17 65° WNW 18:11:52 10° NNE
IRS-1A Rocket 4.4 18:01:29 10° S 18:06:59 74° WSW 18:12:31 10° NNW
Cosmos 489 Rocket 4.4 18:01:16 10° SSW 18:07:36 80° ESE 18:13:57 10° NNE
SJ 16-02 1.6 18:04:23 10° N 18:08:07 51° NNE 18:08:07 51° NNE
STARLINK-1061 3.8 18:06:01 10° SW 18:09:32 57° S 18:09:32 57° S
Cosmos 1898 Rocket 3.3 18:05:52 10° NNW 18:11:02 68° ENE 18:11:47 59° ESE
Cosmos 1464 Rocket 4.1 18:06:46 10° S 18:13:07 82° W 18:19:33 10° N
STARLINK-1067 4.0 18:10:58 10° SW 18:14:19 55° SSW 18:14:19 55° SSW
SJ-6B 3.8 18:16:54 36° N 18:16:54 36° N 18:19:12 10° N
Nadezhda 4 Rocket 3.9 18:09:50 10° N 18:16:07 69° E 18:19:07 33° SSE
Cosmos 2369 Rocket 4.2 18:14:46 10° WSW 18:19:32 27° NW 18:24:22 10° N
STARLINK-1058 4.1 18:15:53 10° SW 18:19:05 52° SW 18:19:05 52° SW
USA 234 4.3 18:19:11 27° NE 18:20:57 31° NNE 18:26:31 10° NW
STARLINK-1043 4.4 18:20:53 10° SW 18:23:52 47° SW 18:23:52 47° SW
Cosmos 1763 Rocket 3.3 18:20:54 10° SSW 18:26:06 86° ESE 18:27:07 59° NNE
MetOp-A 4.3 18:29:57 57° NNE 18:29:57 57° NNE 18:34:28 10° N
Cosmos 2034 Rocket 4.0 18:26:50 10° S 18:32:59 81° W 18:39:11 10° N
Timation 2 Rocket 4.1 18:28:10 10° NNW 18:35:06 84° ENE 18:36:34 59° SE
ARGOS 3.7 18:39:14 28° SSW 18:42:02 57° W 18:47:24 10° NNW
H-2A R/B 3.4 18:48:32 12° SSW 18:53:05 38° W 18:58:10 10° NNW
CENTAUR R/B 4.1 18:47:21 10° NNW 18:54:06 31° NE 18:54:06 31° NE
Cosmos 1092 Rocket 4.1 18:53:17 10° N 18:58:50 70° NNW 18:58:50 70° NNW
Lacrosse 5 3.5 18:56:15 10° SW 18:58:29 27° SW 18:58:29 27° SW
ATLAS 3B R/B 4.3 18:59:39 10° NNW 19:03:34 20° NNE 19:03:34 20° NNE
Cosmos 2297 Rocket 3.8 18:59:51 10° NNW 19:02:16 24° N 19:02:16 24° N
Cosmos 1937 Rocket 4.5 19:01:21 10° NNW 19:05:15 44° WNW 19:05:15 44° WNW
Resurs 01 Rocket 4.3 19:15:31 13° NNW 19:15:31 13° NNW 19:16:04 10° NNW
Lacrosse 5 rocket 4.2 19:08:16 10° NNW 19:09:19 15° NNW 19:09:19 15° NNW
Cosmos 2227 Rocket 4.1 19:18:10 10° NNW 19:20:07 22° N 19:20:07 22° N
USA 238 DEB 4.5 19:21:13 10° NNW 19:26:20 47° N 19:26:20 47° N
USA 238 4.5 19:21:20 10° NNW 19:26:25 47° N 19:26:25 47° N
